sat.trackr.live / text

‹ back to catalog

SERT3

NORAD 68499 · 2026-067CM

PAYLOAD ACTIVE UNKNOWN

§ Identity

Operator
Country
US
Launch date
2026-03-30
Launch site
AFWTR
Launch vehicle
Mass (kg)
RCS (m²)

External: N2YO · Heavens-Above · Gunter

§ Orbital elements

Epoch: 2026-09-19T15:31:17.118624Z

Period
96.53 min
Inclination
97.7681°
Eccentricity
0.0002882
Mean motion
14.91784489 rev/d
Perigee alt
590.4 km
Apogee alt
594.4 km
Semi-major
6,970.5 km
B*
1.1495e-4
RAAN
219.3957°
Arg perigee
88.4731°
Mean anomaly
271.6818°
Rev number
2,580

§ Raw data

SERT31 68499U 26067CM  26262.64672591  .00001103  00000+0  11495-3 0  99922 68499  97.7681 219.3957 0002882  88.4731 271.6818 14.91784489 25806

JSON: /api/v1/satellites/68499 · /tle

For live sub-satellite position, see the globe view (requires WebGL).

§ Visibility from observer

Set your observer location to see the next 7 days of passes ≥ 10°. The values pass through the URL so the page stays shareable.

No JS? Fill the form by hand. The geolocation button needs JavaScript.